This demonstration page uses our WeatherBlox Daily Observations layout. Learn more.

Left ArrowRight Arrow

39.01783, -85.05884

Hourly Observations for April 19, 2019

Temp ( °F °C ) Dew Point ( °F °C ) Humidity (%) Winds ( mph kmh ) Pressure ( in mb ) Visibility ( mi km ) Precip ( " mm )
12:52 am 00:52 Cloudy 58 14.4 53 11.7 84 84 NNW 13 20 29.57 1001 10 16 N/A
1:52 am 01:52 Cloudy with Light Rain 56 13.3 53 11.7 90 90 N 10 17 29.54 1000 6 10 0.09 2.29
2:12 am 02:12 Cloudy with Heavy Rain 56 13.3 54 12.2 93 93 N N/A 29.58 1002 3 5 0.03 0.76
2:52 am 02:52 Cloudy with Heavy Rain 56 13.3 54 12.2 93 93 N 8 13 29.52 1000 3 5 0.11 2.79
3:52 am 03:52 Cloudy with Light Rain 56 13.3 53 11.7 90 90 N 8 13 29.49 999 4 6 0.11 2.79
4:52 am 04:52 Cloudy with Rain 53 11.7 51 10.6 93 93 NNW 15 24 29.51 999 3 5 0.09 2.29
5:52 am 05:52 Cloudy 48 8.9 45 7.2 89 89 N 20 31 29.52 1000 10 16 0.02 0.51
6:52 am 06:52 Cloudy with Light Rain 47 8.3 44 6.7 90 90 N 17 28 29.53 1000 10 16 N/A
7:52 am 07:52 Cloudy with Light Rain 46 7.8 43 6.1 89 89 N 13 20 29.54 1001 7 11 N/A
8:52 am 08:52 Cloudy 46 7.8 43 6.1 89 89 N 14 22 29.56 1001 8 13 N/A
9:52 am 09:52 Cloudy with Mist and Fog 46 7.8 43 6.1 89 89 N 15 24 29.56 1001 5 8 0.01 0.25
10:52 am 10:52 Cloudy with Mist and Fog 46 7.8 44 6.7 93 93 N 15 24 29.56 1001 3 5 N/A
11:52 am 11:52 Cloudy with Mist and Fog 48 8.9 44 6.7 86 86 N 12 19 29.57 1001 5 8 N/A
12:52 pm 12:52 Cloudy with Light Rain 48 8.9 45 7.2 89 89 N 13 20 29.55 1001 4 6 N/A
1:52 pm 13:52 Cloudy with Rain 48 8.9 45 7.2 89 89 N 15 24 29.54 1000 3 5 0.01 0.25
2:52 pm 14:52 Cloudy 49 9.4 46 7.8 90 90 N 18 30 29.52 1000 8 13 0.02 0.51
3:52 pm 15:52 Cloudy with Light Rain 49 9.4 45 7.2 86 86 NNE 24 39 29.47 998 10 16 N/A
4:10 pm 16:10 Cloudy with Thunderstorms 48 8.9 45 7.2 89 89 N 13 20 29.55 1001 4 6 0.01 0.25
4:19 pm 16:19 Cloudy with Heavy Thunderstorms 48 8.9 45 7.2 89 89 N 16 26 29.53 1000 3 4 0.03 0.76
4:26 pm 16:26 Cloudy with Heavy Thunderstorms 48 8.9 45 7.2 89 89 N 29 46 29.50 999 2 2 0.08 2.03
4:42 pm 16:42 Cloudy with Heavy Rain 48 8.9 45 7.2 89 89 NNE 18 30 29.52 1000 3 4 0.17 4.32
4:52 pm 16:52 Cloudy with Heavy Rain 48 8.9 45 7.2 89 89 NNE 25 41 29.47 998 3 4 0.23 5.84
5:24 pm 17:24 Cloudy with Rain 48 8.9 45 7.2 89 89 N 15 24 29.53 1000 3 4 0.10 2.54
5:52 pm 17:52 Cloudy with Rain 48 8.9 45 7.2 89 89 NNE 18 30 29.49 999 3 4 0.19 4.83
6:09 pm 18:09 Cloudy with Light Rain 48 8.9 45 7.2 89 89 N 17 28 29.51 999 6 10 0.03 0.76
6:52 pm 18:52 Cloudy 48 8.9 44 6.7 86 86 N 18 30 29.49 999 10 16 0.03 0.76
7:52 pm 19:52 Cloudy 47 8.3 43 6.1 86 86 NNE 22 35 29.50 999 10 16 N/A
8:52 pm 20:52 Cloudy 46 7.8 42 5.6 86 86 N 25 41 29.52 1000 10 16 N/A
9:10 pm 21:10 Cloudy 46 7.8 42 5.6 86 86 N 26 43 29.54 1000 10 16 N/A
9:52 pm 21:52 Cloudy with Light Rain 45 7.2 41 5 86 86 NNE 23 37 29.51 999 8 13 N/A
10:52 pm 22:52 Cloudy 45 7.2 41 5 86 86 N 25 41 29.50 999 10 16 N/A

Powered by AerisWeather